Retour au catalogue

FENGYUN 1C DEB

ActifPO
NORAD 41011·DEBRIS·🇨🇳 China

Lancé May 10, 1999 depuis Taiyuan Satellite Launch Center

Loading…

Prochains Passages (prochaines 24 heures)

TLE

FraisSource: Space-Track

Époque: Sep 12, 2026, 11:35 UTC

1 41011U 99025EXR 26255.48273547  .00001235  00000-0  21470-3 0  9990
2 41011  99.1349 326.4523 0303497 267.3387  89.3033 14.44576202611077

Suivez FENGYUN 1C DEB en temps réel avec AllMySat

Download on the App Store